This is the latest recevied weather packets stored in our database for station/object KC0AFB. If no packets are shown the sender has not sent any weather packets the latest 10 day(s).
| Time | Temp. | Humidity | Pressure | Rain* | Wind** | Luminosity | Snow |
|---|---|---|---|---|---|---|---|
| 1777621449 | 0° C | 69% | 1020.6 hPa | 0 mm | - | 0 W/m² | - |
| 1777621144 | -0.56° C | 70% | 1020.6 hPa | 0 mm | - | 0 W/m² | - |
| 1777620841 | 0° C | 69% | 1020.4 hPa | 0 mm | - | 0 W/m² | - |
| 1777620537 | 0° C | 69% | 1020.4 hPa | 0 mm | - | 0 W/m² | - |
| 1777620234 | 0° C | 67% | 1020.5 hPa | 0 mm | - | 0 W/m² | - |
| 1777619930 | 0° C | 67% | 1020.1 hPa | 0 mm | - | 0 W/m² | - |
| 1777619626 | 0° C | 67% | 1020.5 hPa | 0 mm | - | 0 W/m² | - |
| 1777619321 | 0° C | 68% | 1020.4 hPa | 0 mm | - | 0 W/m² | - |
| 1777619021 | -0.56° C | 68% | 1020.5 hPa | 0 mm | - | 0 W/m² | - |
| 1777618716 | -0.56° C | 69% | 1020.6 hPa | 0 mm | - | 0 W/m² | - |
| 1777618411 | -1.11° C | 69% | 1020.5 hPa | 0 mm | - | 0 W/m² | - |
| 1777618108 | -0.56° C | 69% | 1020.4 hPa | 0 mm | - | 0 W/m² | - |
| 1777617805 | -0.56° C | 67% | 1020.5 hPa | 0 mm | - | 0 W/m² | - |
| 1777617499 | 0° C | 66% | 1020.4 hPa | 0 mm | - | 0 W/m² | - |
| 1777617196 | 0° C | 65% | 1020.5 hPa | 0 mm | - | 0 W/m² | - |
| 1777616892 | 1.11° C | 63% | 1020.5 hPa | 0 mm | - | 0 W/m² | - |
| 1777616589 | 1.11° C | 62% | 1020.8 hPa | 0 mm | - | 0 W/m² | - |
| 1777616284 | 1.11° C | 62% | 1020.4 hPa | 0 mm | - | 0 W/m² | - |
| 1777615981 | 1.11° C | 63% | 1020.3 hPa | 0 mm | - | 0 W/m² | - |
| 1777615677 | 0.56° C | 64% | 1020.3 hPa | 0 mm | - | 0 W/m² | - |
| 1777615374 | 1.11° C | 63% | 1020.4 hPa | 0 mm | - | 0 W/m² | - |
| 1777615074 | 1.11° C | 63% | 1020.3 hPa | 0 mm | - | 0 W/m² | - |
| 1777614770 | 0.56° C | 64% | 1020.3 hPa | 0 mm | - | 0 W/m² | - |
| 1777614470 | 0.56° C | 65% | 1020.4 hPa | 0 mm | - | 0 W/m² | - |
| 1777614167 | 0.56° C | 64% | 1020.3 hPa | 0 mm | - | 0 W/m² | - |
* Rain latest hour (hover to see other rain measurements)
** Current wind speed in m/s (hover to see current wind gust speed)